Regional Weather Roundup
Issued by NWS

Home | Current Version | Previous Version | Text Only | Print | Product List | Glossary Off
Versions: 1 2 3 4 5 6 7 8 9 10 11 12 13 14 15 16 17 18 19 20 21 22 23 24 25 26 27 28 29 30 31 32 33 34 35 36 37 38 39 40 41 42 43 44 45 46 47 48 49 50

000
ASUS43 KIND 271709
RWRIN

WEATHER ROUNDUP FOR INDIANA
NATIONAL WEATHER SERVICE INDIANAPOLIS IN
1200 PM EST MON FEB 27 2017

NOTE: "FAIR" INDICATES FEW OR NO CLOUDS BELOW 12,000 FEET WITH NO
SIGNIFICANT WEATHER AND/OR OBSTRUCTIONS TO VISIBILITY.

* - STATION DOES NOT REPORT WEATHER SUCH AS PRECIPITATION OR FOG.

+ - STATION NOT QUALITY CONTROLLED BY THE NATIONAL WEATHER SERVICE.
    USE DATA WITH CAUTION...ESPECIALLY DEWPOINT AND RELATIVE
    HUMIDITY OBSERVATIONS.

INZ001>003-010>013-019-020-271800-
NORTHWEST INDIANA

CITY           SKY/WX    TMP DP  RH WIND       PRES   REMARKS
GARY /AIRPORT/ MOSUNNY   46  32  57 S8        30.18F
KNOX *+        MOSUNNY   45  14  29 S9        30.19F
LA PORTE +     MOSUNNY   45  35  67 S9        30.19F
MICHIGAN CITY+ SUNNY     45  34  65 S8        30.19F
MONTICELLO +   CLOUDY    47  36  64 S8        30.19S
RENSSELAER +   SUNNY     50  36  57 S9        30.18F
VALPARAISO     MOSUNNY   47  35  63 S9G17     30.18F

$$

LMZ046-743>745-271800-
SOUTHERN LAKE MICHIGAN

STATION/POSITION TIME  TEMP    WIND        PRES    WAVE
                       AIR SEA DIR/SP/G            HT
                 (UTC) (F)     (DEG/KT/KT) (MB)    (FT)
BURNS HARBOR     1630   43     190/  7/ 13 1022.7F
MICHIGAN CITY    1640   42     140/  7/ 10   N/A

$$

INZ004-005-014>016-021>024-271800-
NORTH CENTRAL INDIANA

CITY           SKY/WX    TMP DP  RH WIND       PRES   REMARKS
ELKHART        SUNNY     45  32  61 S8        30.20F
GOSHEN         MOSUNNY   46  31  55 S9        30.20F
LOGANSPORT +   CLOUDY    45  36  70 SE3       30.20F
PERU/GRISSOM   CLOUDY    48  36  63 VRB7      30.18F
ROCHESTER +    PTSUNNY   46  36  66 S6        30.20F
SOUTH BEND     MOSUNNY   45  33  63 S8        30.20F
WARSAW +       CLOUDY    45  32  61 S7        30.21S

$$

INZ006>009-017-018-025>027-271800-
NORTHEAST INDIANA

CITY           SKY/WX    TMP DP  RH WIND       PRES   REMARKS
ANGOLA *+      SUNNY     45  34  65 S7        30.20F
AUBURN +       PTSUNNY   45  32  61 S7        30.23S
FORT WAYNE     CLOUDY    45  35  68 S8        30.23S
HUNTINGTON +   CLOUDY    44  33  66 S6        30.21F
KENDALLVILLE + MOSUNNY   45  33  61 SW7       30.21F

$$

INZ028-029-035-036-043>045-051>053-271800-
WEST CENTRAL INDIANA

CITY           SKY/WX    TMP DP  RH WIND       PRES   REMARKS
GREENCASTLE +  FAIR      50  36  57 CALM      30.18
LAFAYETTE      SUNNY     50  33  52 S8        30.18F
TERRE HAUTE    MOSUNNY   51  37  58 S9        30.18F

$$

INZ030>032-037>040-046>048-054>057-064-065-271800-
CENTRAL INDIANA

CITY           SKY/WX    TMP DP  RH WIND       PRES   REMARKS
ANDERSON       PTSUNNY   48  37  66 S12       30.21F
CP ATTERBURY + CLOUDY    48  36  61 SE8       30.21F
COLUMBUS       CLOUDY    46  39  76 S12       30.23S
FRANKFORT +    SUNNY     53  37  54 S7        30.20S
GREENWOOD *+   CLOUDY    48  37  64 S9        30.21S
INDIANAPOLIS   PTSUNNY   50  36  58 SE9       30.19F
-EAGLE CREEK   SUNNY     50  36  58 S10       30.18F
KOKOMO +       SUNNY     49  35  58 S10       30.20F
MARION +       MOSUNNY   48  32  54 S8        30.21S
MT COMFORT *+  MOSUNNY   48  36  61 S12       30.20S
SHELBYVILLE    CLOUDY    50  36  58 SE13      30.20F
ZIONSVILLE +   SUNNY     48  37  65 S9        30.19S

$$

INZ033-034-041-042-049-050-058-059-271800-
EAST CENTRAL INDIANA

CITY           SKY/WX    TMP DP  RH WIND       PRES   REMARKS
MUNCIE         SUNNY     50  34  54 S9        30.20F

$$

INZ060-061-067>069-081>083-085>088-271800-
SOUTHWEST INDIANA

CITY           SKY/WX    TMP DP  RH WIND       PRES   REMARKS
EVANSVILLE     CLOUDY    49  43  80 SE6       30.20F
HUNTINGBURG *+ CLOUDY    46  45  93 E6        30.21F
WASHINGTON +   CLOUDY    47  40  75 SE12      30.20S

$$

INZ062-063-066-070>080-084-089>092-271800-
SOUTH CENTRAL AND SOUTHEAST INDIANA

CITY           SKY/WX    TMP DP  RH WIND       PRES   REMARKS
BEDFORD +      CLOUDY    45  37  76 SE5       30.21S
BLOOMINGTON    PTSUNNY   49  37  63 S13       30.19F
MADISON *+     CLOUDY    43  41  93 SE3       30.26S
NORTH VERNON + CLOUDY    45  39  81 SE6       30.24R
SEYMOUR +      DRIZZLE   46  39  76 SE7       30.24R

$$





USA.gov is the U.S. government's official web portal to all federal, state and local government web resources and services.